When you browse on this site, cookies collect data to enhance your experience and personalize the content and advertising you see.
Visit our Privacy Policy to learn more. By continuing to use the site, you agree to this use of cookies and data.
  • In Portugal
  • List of Countries
  • For 7 days
  • Water Temperature
  • Satellite Maps
  • Weather Map
  • Weather Widgets
  • user-avatar
    Login

    Hourly Weather El Quseir

    Today, 25 May, Saturday

    Time Temperature Precipitation Wind Pressure Humidity
    00:00 +36°C° 0 mm 2 mps 755 mmHg 20%
    01:00 +35°C° 0 mm 2 mps 755 mmHg 20%
    02:00 +34°C° 0 mm 2 mps 755 mmHg 20%
    03:00 +34°C° 0 mm 2 mps 755 mmHg 27%
    04:00 +33°C° 0 mm 3 mps 756 mmHg 34%
    05:00 +32°C° 0 mm 4 mps 756 mmHg 41%
    06:00 +33°C° 0 mm 4 mps 757 mmHg 38%
    07:00 +34°C° 0 mm 4 mps 757 mmHg 35%
    08:00 +36°C° 0 mm 5 mps 757 mmHg 32%
    09:00 +37°C° 0 mm 5 mps 757 mmHg 29%
    10:00 +39°C° 0 mm 5 mps 758 mmHg 26%
    11:00 +40°C° 0 mm 5 mps 758 mmHg 24%
    12:00 +41°C° 0 mm 5 mps 757 mmHg 23%
    13:00 +41°C° 0 mm 5 mps 757 mmHg 23%
    14:00 +41°C° 0 mm 4 mps 757 mmHg 23%
    15:00 +41°C° 0 mm 4 mps 756 mmHg 24%
    16:00 +39°C° 0 mm 3 mps 756 mmHg 25%
    17:00 +39°C° 0 mm 2 mps 755 mmHg 26%
    18:00 +38°C° 0 mm 2 mps 755 mmHg 28%
    19:00 +37°C° 0 mm 2 mps 755 mmHg 29%
    20:00 +36°C° 0 mm 2 mps 755 mmHg 30%
    21:00 +36°C° 0 mm 3 mps 756 mmHg 30%
    22:00 +35°C° 0 mm 4 mps 756 mmHg 29%
    23:00 +35°C° 0 mm 5 mps 756 mmHg 29%

    Tomorrow, 26 May, Sunday

    Time Temperature Precipitation Wind Pressure Humidity
    00:00 +34°C° 0 mm 6 mps 756 mmHg 30%
    01:00 +34°C° 0 mm 6 mps 756 mmHg 31%
    02:00 +33°C° 0 mm 7 mps 756 mmHg 31%
    03:00 +33°C° 0 mm 7 mps 756 mmHg 33%
    04:00 +33°C° 0 mm 7 mps 756 mmHg 34%
    05:00 +32°C° 0 mm 8 mps 756 mmHg 36%
    06:00 +34°C° 0 mm 8 mps 756 mmHg 33%
    07:00 +35°C° 0 mm 8 mps 756 mmHg 29%
    08:00 +38°C° 0 mm 8 mps 756 mmHg 26%
    09:00 +39°C° 0 mm 8 mps 756 mmHg 23%
    10:00 +41°C° 0 mm 8 mps 756 mmHg 20%
    11:00 +44°C° 0 mm 8 mps 756 mmHg 18%
    12:00 +44°C° 0 mm 7 mps 756 mmHg 17%
    13:00 +44°C° 0 mm 7 mps 755 mmHg 17%
    14:00 +45°C° 0 mm 7 mps 755 mmHg 17%
    15:00 +44°C° 0 mm 7 mps 755 mmHg 18%
    16:00 +42°C° 0 mm 6 mps 754 mmHg 19%
    17:00 +41°C° 0 mm 5 mps 754 mmHg 20%
    18:00 +40°C° 0 mm 5 mps 754 mmHg 21%
    19:00 +39°C° 0 mm 5 mps 754 mmHg 23%
    20:00 +37°C° 0 mm 5 mps 754 mmHg 24%
    21:00 +37°C° 0 mm 5 mps 755 mmHg 23%
    22:00 +37°C° 0 mm 5 mps 755 mmHg 22%
    23:00 +37°C° 0 mm 5 mps 755 mmHg 21%

    Day after tomorrow, 27 May, Monday

    Time Temperature Precipitation Wind Pressure Humidity
    00:00 +36°C° 0 mm 6 mps 755 mmHg 23%
    01:00 +36°C° 0 mm 7 mps 755 mmHg 24%
    02:00 +35°C° 0 mm 7 mps 754 mmHg 26%
    03:00 +34°C° 0 mm 8 mps 754 mmHg 28%
    04:00 +34°C° 0 mm 8 mps 754 mmHg 30%
    05:00 +33°C° 0 mm 8 mps 754 mmHg 31%
    06:00 +35°C° 0 mm 8 mps 755 mmHg 28%
    07:00 +37°C° 0 mm 8 mps 755 mmHg 24%
    08:00 +39°C° 0 mm 8 mps 755 mmHg 20%
    09:00 +40°C° 0 mm 8 mps 755 mmHg 19%
    10:00 +41°C° 0 mm 7 mps 755 mmHg 18%
    11:00 +44°C° 0 mm 7 mps 755 mmHg 16%
    12:00 +44°C° 0 mm 7 mps 755 mmHg 16%
    13:00 +44°C° 0 mm 7 mps 754 mmHg 15%
    14:00 +45°C° 0 mm 7 mps 753 mmHg 15%
    15:00 +44°C° 0 mm 6 mps 753 mmHg 15%
    16:00 +42°C° 0 mm 6 mps 753 mmHg 15%
    17:00 +42°C° 0 mm 5 mps 753 mmHg 16%
    18:00 +41°C° 0 mm 6 mps 753 mmHg 17%
    19:00 +40°C° 0 mm 6 mps 754 mmHg 18%
    20:00 +39°C° 0 mm 6 mps 754 mmHg 19%
    21:00 +39°C° 0 mm 6 mps 754 mmHg 18%
    22:00 +38°C° 0 mm 7 mps 755 mmHg 17%
    23:00 +38°C° 0 mm 7 mps 755 mmHg 17%

    28 May, Tuesday

    Time Temperature Precipitation Wind Pressure Humidity
    00:00 +36°C° 0 mm 7 mps 754 mmHg 17%
    01:00 +36°C° 0 mm 7 mps 754 mmHg 17%
    02:00 +35°C° 0 mm 7 mps 754 mmHg 18%
    03:00 +34°C° 0 mm 7 mps 754 mmHg 19%
    04:00 +34°C° 0 mm 7 mps 754 mmHg 20%
    05:00 +33°C° 0 mm 7 mps 754 mmHg 22%
    06:00 +35°C° 0 mm 7 mps 754 mmHg 19%
    07:00 +36°C° 0 mm 7 mps 754 mmHg 17%
    08:00 +39°C° 0 mm 7 mps 755 mmHg 15%
    09:00 +40°C° 0 mm 7 mps 754 mmHg 14%
    10:00 +43°C° 0 mm 7 mps 754 mmHg 12%
    11:00 +44°C° 0 mm 7 mps 754 mmHg 11%
    12:00 +44°C° 0 mm 7 mps 754 mmHg 12%
    13:00 +44°C° 0 mm 7 mps 753 mmHg 12%
    14:00 +44°C° 0 mm 7 mps 753 mmHg 13%
    15:00 +44°C° 0 mm 6 mps 753 mmHg 13%
    16:00 +42°C° 0 mm 6 mps 753 mmHg 14%
    17:00 +41°C° 0 mm 6 mps 753 mmHg 14%
    18:00 +40°C° 0 mm 6 mps 753 mmHg 15%
    19:00 +39°C° 0 mm 5 mps 754 mmHg 16%
    20:00 +37°C° 0 mm 5 mps 754 mmHg 17%
    21:00 +38°C° 0 mm 6 mps 754 mmHg 16%
    22:00 +36°C° 0 mm 7 mps 754 mmHg 15%
    23:00 +36°C° 0 mm 7 mps 754 mmHg 13%

    29 May, Wednesday

    Time Temperature Precipitation Wind Pressure Humidity
    00:00 +35°C° 0 mm 8 mps 754 mmHg 15%
    01:00 +35°C° 0 mm 8 mps 754 mmHg 17%
    02:00 +34°C° 0 mm 8 mps 753 mmHg 19%
    03:00 +34°C° 0 mm 8 mps 753 mmHg 21%
    04:00 +33°C° 0 mm 8 mps 754 mmHg 24%
    05:00 +32°C° 0 mm 8 mps 754 mmHg 27%
    06:00 +34°C° 0 mm 8 mps 754 mmHg 24%
    07:00 +35°C° 0 mm 7 mps 754 mmHg 21%
    08:00 +38°C° 0 mm 7 mps 755 mmHg 19%
    09:00 +39°C° 0 mm 6 mps 755 mmHg 17%
    10:00 +40°C° 0 mm 6 mps 755 mmHg 16%
    11:00 +42°C° 0 mm 6 mps 754 mmHg 15%
    12:00 +42°C° 0 mm 6 mps 754 mmHg 15%
    13:00 +44°C° 0 mm 6 mps 754 mmHg 15%
    14:00 +43°C° 0 mm 5 mps 753 mmHg 15%
    15:00 +42°C° 0 mm 6 mps 753 mmHg 16%
    16:00 +42°C° 0 mm 6 mps 753 mmHg 18%
    17:00 +41°C° 0 mm 6 mps 753 mmHg 19%
    18:00 +40°C° 0 mm 6 mps 753 mmHg 21%
    19:00 +39°C° 0 mm 6 mps 753 mmHg 22%
    20:00 +38°C° 0 mm 6 mps 754 mmHg 24%
    21:00 +38°C° 0 mm 6 mps 754 mmHg 23%
    22:00 +36°C° 0 mm 6 mps 754 mmHg 22%
    23:00 +36°C° 0 mm 7 mps 754 mmHg 22%

    30 May, Thursday

    Time Temperature Precipitation Wind Pressure Humidity
    00:00 +35°C° 0 mm 7 mps 754 mmHg 23%
    01:00 +35°C° 0 mm 7 mps 754 mmHg 25%
    02:00 +34°C° 0 mm 8 mps 753 mmHg 27%
    03:00 +34°C° 0 mm 7 mps 754 mmHg 29%
    04:00 +33°C° 0 mm 7 mps 754 mmHg 31%
    05:00 +32°C° 0 mm 6 mps 754 mmHg 33%
    06:00 +34°C° 0 mm 7 mps 754 mmHg 29%
    07:00 +36°C° 0 mm 7 mps 755 mmHg 26%
    08:00 +38°C° 0 mm 7 mps 755 mmHg 22%
    09:00 +40°C° 0 mm 7 mps 755 mmHg 20%
    10:00 +41°C° 0 mm 7 mps 755 mmHg 18%
    11:00 +43°C° 0 mm 7 mps 754 mmHg 16%
    12:00 +44°C° 0 mm 7 mps 754 mmHg 15%
    13:00 +44°C° 0 mm 7 mps 753 mmHg 15%
    14:00 +45°C° 0 mm 7 mps 753 mmHg 15%
    15:00 +45°C° 0 mm 6 mps 753 mmHg 15%
    16:00 +44°C° 0 mm 6 mps 753 mmHg 15%
    17:00 +44°C° 0 mm 6 mps 752 mmHg 15%
    18:00 +42°C° 0 mm 6 mps 753 mmHg 17%
    19:00 +41°C° 0 mm 6 mps 753 mmHg 18%
    20:00 +39°C° 0 mm 6 mps 753 mmHg 20%
    21:00 +39°C° 0 mm 7 mps 753 mmHg 20%
    22:00 +39°C° 0 mm 8 mps 753 mmHg 20%
    23:00 +38°C° 0 mm 8 mps 754 mmHg 20%
    Show more